Susqueda (La Selva)





Hora UTC 17:25
Temperatura 13.4 ºC
Humedad 80.0 %
Presión 1011.6 hPa
Pluja 0.0 mm

Datos diarios 2024-04-16



Hora UTC (invierno +1h; verano +2h)
Temperatura (ºC) Humedad (%) Presión (hPa) Precipitación (mm)
Hora UTC Aire Humedad Presión Intent. máx 5 min.
00:05 12.8 72.0 1016.0 0.0
00:10 12.6 73.0 1016.0 0.0
00:15 12.5 73.0 1016.0 0.0
00:20 12.5 73.0 1015.9 0.0
00:25 12.4 74.0 1016.0 0.0
00:30 12.4 73.0 1016.0 0.0
00:35 12.4 74.0 1016.0 0.0
00:40 12.3 74.0 1015.9 0.0
00:45 12.3 74.0 1015.9 0.0
00:50 12.2 75.0 1015.8 0.0
00:55 12.2 75.0 1015.8 0.0
01:00 12.1 76.0 1015.7 0.0
01:05 12.2 75.0 1015.7 0.0
01:10 12.1 75.0 1015.6 0.0
01:15 12.0 75.0 1015.6 0.0
01:20 11.9 76.0 1015.5 0.0
01:25 11.8 75.0 1015.5 0.0
01:30 11.8 76.0 1015.4 0.0
01:35 11.7 76.0 1015.4 0.0
01:40 11.7 76.0 1015.4 0.0
01:45 11.7 77.0 1015.3 0.0
01:50 11.7 77.0 1015.3 0.0
01:55 11.7 77.0 1015.4 0.0
02:00 11.5 77.0 1015.3 0.0
02:05 11.5 77.0 1015.1 0.0
02:10 11.3 78.0 1015.1 0.0
02:15 11.3 77.0 1015.1 0.0
02:20 11.3 78.0 1015.0 0.0
02:25 11.2 79.0 1014.9 0.0
02:30 11.1 79.0 1014.8 0.0
02:35 11.1 79.0 1014.9 0.0
02:40 11.1 79.0 1014.8 0.0
02:45 11.1 79.0 1014.7 0.0
02:50 11.2 79.0 1014.6 0.0
02:55 11.1 79.0 1014.7 0.0
03:00 10.9 80.0 1014.7 0.0
03:05 10.8 80.0 1014.7 0.0
03:10 10.8 80.0 1014.7 0.0
03:15 10.8 80.0 1014.8 0.0
03:20 10.8 80.0 1014.8 0.0
03:25 10.8 80.0 1014.7 0.0
03:30 10.8 80.0 1014.7 0.0
03:35 10.7 80.0 1014.5 0.0
03:40 10.7 80.0 1014.4 0.0
03:45 10.7 80.0 1014.3 0.0
03:50 10.6 81.0 1014.2 0.0
03:55 10.6 81.0 1014.3 0.0
04:00 10.6 80.0 1014.2 0.0
04:05 10.6 81.0 1014.2 0.0
04:10 10.5 80.0 1014.2 0.0
04:15 10.5 80.0 1014.2 0.0
04:20 10.3 80.0 1014.3 0.0
04:25 10.2 82.0 1014.4 0.0
04:30 10.2 82.0 1014.2 0.0
04:35 10.1 82.0 1014.0 0.0
04:40 9.9 81.0 1014.1 0.0
04:45 9.9 81.0 1014.4 0.0
04:50 10.0 82.0 1014.4 0.0
04:55 10.0 81.0 1014.4 0.0
05:00 10.0 81.0 1014.6 0.0
05:05 10.1 81.0 1014.6 0.0
05:10 10.0 81.0 1014.7 0.0
05:15 9.9 81.0 1014.6 0.0
05:20 10.0 80.0 1014.4 0.0
05:25 10.0 81.0 1014.3 0.0
05:30 10.0 81.0 1014.2 0.0
05:35 10.4 79.0 1014.3 0.0
05:40 10.7 77.0 1014.1 0.0
05:45 10.7 77.0 1014.3 0.0
05:50 10.8 76.0 1014.3 0.0
05:55 10.9 75.0 1014.4 0.0
06:00 11.0 75.0 1014.3 0.0
06:05 10.9 77.0 1014.3 0.0
06:10 10.7 77.0 1014.5 0.0
06:15 10.9 76.0 1014.5 0.0
06:20 11.0 77.0 1014.6 0.0
06:25 10.9 77.0 1014.5 0.0
06:30 10.9 76.0 1014.5 0.0
06:35 10.9 77.0 1014.3 0.0
06:40 10.7 79.0 1014.3 0.0
06:45 10.7 77.0 1014.2 0.0
06:50 11.1 77.0 1014.1 0.0
06:55 11.1 77.0 1014.1 0.0
07:00 11.2 76.0 1014.1 0.0
07:05 11.4 73.0 1013.9 0.0
07:10 11.7 73.0 1014.0 0.0
07:15 11.8 73.0 1014.0 0.0
07:20 12.0 71.0 1013.9 0.0
07:25 12.1 71.0 1013.7 0.0
07:30 12.3 72.0 1013.6 0.0
07:35 12.4 70.0 1013.6 0.0
07:40 12.4 70.0 1013.6 0.0
07:45 12.4 70.0 1013.8 0.0
07:50 12.7 69.0 1013.8 0.0
07:55 12.7 69.0 1013.7 0.0
08:00 12.7 69.0 1013.7 0.0
08:05 12.9 68.0 1013.6 0.0
08:10 13.2 68.0 1013.5 0.0
08:15 13.4 67.0 1013.5 0.0
08:20 13.5 68.0 1013.6 0.0
08:25 13.6 67.0 1013.5 0.0
08:30 13.8 66.0 1013.4 0.0
08:35 14.0 67.0 1013.4 0.0
08:40 14.1 66.0 1013.4 0.0
08:45 14.3 66.0 1013.3 0.0
08:50 14.4 66.0 1013.2 0.0
08:55 14.6 66.0 1013.1 0.0
09:00 14.8 65.0 1013.1 0.0
09:05 15.0 66.0 1013.0 0.0
09:10 15.1 65.0 1013.1 0.0
09:15 15.2 64.0 1013.1 0.0
09:20 15.4 64.0 1013.1 0.0
09:25 15.6 64.0 1013.1 0.0
09:30 16.4 61.0 1013.1 0.0
09:35 17.2 62.0 1013.1 0.0
09:40 18.3 60.0 1012.9 0.0
09:45 19.3 57.0 1013.0 0.0
09:50 20.0 55.0 1012.8 0.0
09:55 20.2 54.0 1012.7 0.0
10:00 20.1 54.0 1012.7 0.0
10:05 20.1 54.0 1012.6 0.0
10:10 20.1 53.0 1012.7 0.0
10:15 20.0 53.0 1012.7 0.0
10:20 19.5 55.0 1012.6 0.0
10:25 19.9 54.0 1012.6 0.0
10:30 20.6 53.0 1012.7 0.0
10:35 20.3 52.0 1012.7 0.0
10:40 20.4 53.0 1012.5 0.0
10:45 20.9 51.0 1012.7 0.0
10:50 21.1 52.0 1012.6 0.0
10:55 20.7 52.0 1012.5 0.0
11:00 20.4 52.0 1012.4 0.0
11:05 20.2 54.0 1012.3 0.0
11:10 20.0 54.0 1012.3 0.0
11:15 20.1 54.0 1012.2 0.0
11:20 20.2 53.0 1012.2 0.0
11:25 19.9 54.0 1012.1 0.0
11:30 20.3 54.0 1012.1 0.0
11:35 20.6 53.0 1012.1 0.0
11:40 20.6 54.0 1012.0 0.0
11:45 20.6 53.0 1011.9 0.0
11:50 19.9 54.0 1011.8 0.0
11:55 19.4 56.0 1011.8 0.0
12:00 19.4 57.0 1011.7 0.0
12:05 19.4 57.0 1011.6 0.0
12:10 19.4 58.0 1011.6 0.0
12:15 20.1 56.0 1011.5 0.0
12:20 20.3 55.0 1011.5 0.0
12:25 20.3 55.0 1011.4 0.0
12:30 20.5 56.0 1011.3 0.0
12:35 20.1 56.0 1011.5 0.0
12:40 19.8 57.0 1011.4 0.0
12:45 19.9 58.0 1011.2 0.0
12:50 19.6 59.0 1011.3 0.0
12:55 19.5 59.0 1011.2 0.0
13:00 19.6 60.0 1011.2 0.0
13:05 19.7 59.0 1011.2 0.0
13:10 19.6 60.0 1011.1 0.0
13:15 19.1 61.0 1011.1 0.0
13:20 18.8 63.0 1011.0 0.0
13:25 18.8 63.0 1011.0 0.0
13:30 18.8 63.0 1011.0 0.0
13:35 18.6 64.0 1011.1 0.0
13:40 18.4 66.0 1011.0 0.0
13:45 18.4 65.0 1010.8 0.0
13:50 18.5 65.0 1010.8 0.0
13:55 18.7 64.0 1010.8 0.0
14:00 18.4 65.0 1010.8 0.0
14:05 18.1 66.0 1010.9 0.0
14:10 17.7 67.0 1010.8 0.0
14:15 17.5 68.0 1010.9 0.0
14:20 17.4 68.0 1010.8 0.0
14:25 17.4 68.0 1010.8 0.0
14:30 17.2 69.0 1010.8 0.0
14:35 17.2 69.0 1010.9 0.0
14:40 16.8 69.0 1010.8 0.0
14:45 16.3 71.0 1010.8 0.0
14:50 16.3 72.0 1010.7 0.0
14:55 16.0 72.0 1010.8 0.0
15:00 15.8 73.0 1010.9 0.0
15:05 15.6 73.0 1011.0 0.0
15:10 15.3 74.0 1010.9 0.0
15:15 15.1 75.0 1011.0 0.0
15:20 14.9 75.0 1011.0 0.0
15:25 14.7 76.0 1011.0 0.0
15:30 14.4 77.0 1011.1 0.0
15:35 14.2 77.0 1011.0 0.0
15:40 14.2 78.0 1011.1 0.0
15:45 14.1 78.0 1011.0 0.0
15:50 14.1 78.0 1011.0 0.0
15:55 13.9 78.0 1011.1 0.0
16:00 13.9 79.0 1011.0 0.0
16:05 13.8 79.0 1011.1 0.0
16:10 13.8 79.0 1011.1 0.0
16:15 13.8 79.0 1011.1 0.0
16:20 13.8 79.0 1011.1 0.0
16:25 13.9 79.0 1011.1 0.0
16:30 13.9 79.0 1011.1 0.0
16:35 13.9 79.0 1011.1 0.0
16:40 13.9 79.0 1011.1 0.0
16:45 13.9 79.0 1011.1 0.0
16:50 13.9 79.0 1011.2 0.0
16:55 13.8 79.0 1011.2 0.0
17:00 13.7 79.0 1011.2 0.0
17:05 13.6 80.0 1011.3 0.0
17:10 13.6 80.0 1011.4 0.0
17:15 13.6 80.0 1011.5 0.0
17:20 13.5 80.0 1011.6 0.0
17:25 13.4 80.0 1011.6 0.0
Máxima 21.1 82.0 1016.0 0.0
Mínima 9.9 51.0 1010.7
Total 0.0